Location: Newark
(54.6833°N, 25.2833°E)
Time: 02:10:24
(UTC+00:00)

Altair - Pass Details

Date: 21 November 2019
Orbit: 1502 x 1682 km, 47.2° (Epoch: 12 December)

Event Time Altitude Azimuth Distance (km) Brightness Sun altitude
Rises 01:11:13 0° 224° (SW) 4,644 - -40.5°
Reaches altitude 10° 01:14:28 10° 217° (SW) 3,655 - -40.1°
Maximum altitude 01:22:43 39° 153° (SSE) 2,104 - -39.0°
Exits shadow 01:23:08 39° 147° (SSE) 2,111 8.1 -39.0°
Drops below altitude 10° 01:31:00 10° 89° (E) 3,682 10.1 -37.9°
Sets 01:34:17 0° 82° (E) 4,682 11.0 -37.5°
